Location: B?dimalle
(17.1788°N, 80.5377°E)
Time: 01:34:08
(UTC+00:00)

Injun/Solrad 3 - All Passes

Search period start: 07 February 2026 00:00
Search period end: 17 February 2026 00:00
Orbit: 873 x 983 km, 66.8° (Epoch: 6 February)

Date Brightness Start Highest point End Pass type
(mag) Time Alt. Az. Time Alt. Az. Time Alt. Az.
7 Feb - 07:16:15 10° SSW 07:22:06 84° ESE 07:27:56 10° NNE daylight
7 Feb - 18:18:28 10° NNW 18:24:44 80° WSW 18:31:07 10° SSE night (unlit)
8 Feb - 05:45:19 10° SE 05:47:09 11° ESE 05:48:58 10° E daylight
8 Feb - 07:27:24 10° SW 07:33:05 55° WNW 07:38:47 10° N daylight
8 Feb - 16:45:05 10° NNE 16:49:13 18° ENE 16:53:23 10° ESE night (unlit)
8 Feb - 18:29:44 10° NW 18:35:42 47° WSW 18:41:46 10° S night (unlit)
9 Feb - 05:53:40 10° SSE 05:58:00 22° ESE 06:02:20 10° ENE daylight
9 Feb - 07:39:02 10° SW 07:44:08 32° WNW 07:49:17 10° N daylight
9 Feb - 16:54:57 10° N 17:00:22 30° ENE 17:05:53 10° SE night (unlit)
9 Feb - 18:41:26 10° NW 18:46:37 27° WSW 18:51:52 10° SSW night (unlit)
10 Feb - 06:03:32 10° S 06:08:53 39° ESE 06:14:14 10° NE daylight
10 Feb - 07:51:24 10° WSW 07:55:17 18° WNW 07:59:11 10° NNW daylight
10 Feb - 17:05:23 10° N 17:11:27 51° ENE 17:17:38 10° SE night (unlit)
10 Feb - 18:53:59 10° WNW 18:57:30 15° WSW 19:01:03 10° SW night (unlit)
11 Feb - 06:14:02 10° SSW 06:19:48 70° ESE 06:25:36 10° NNE daylight
11 Feb - 17:16:11 10° NNW 17:22:29 87° ENE 17:28:52 10° SSE night (unlit)
12 Feb - 06:25:01 10° SSW 06:30:47 67° WNW 06:36:35 10° NNE daylight
12 Feb - 15:43:25 10° NNE 15:46:52 15° ENE 15:50:21 10° E night (unlit)
12 Feb - 17:27:19 10° NNW 17:33:27 56° WSW 17:39:40 10° S night (unlit)
13 Feb - 04:51:58 10° SSE 04:55:45 18° ESE 04:59:32 10° ENE daylight
13 Feb - 06:36:28 10° SW 06:41:49 38° WNW 06:47:12 10° N daylight
13 Feb - 15:52:57 10° N 15:58:04 26° ENE 16:03:13 10° ESE night (unlit)
13 Feb - 17:38:51 10° NW 17:44:23 32° WSW 17:49:58 10° S night (unlit)
14 Feb - 05:01:32 10° S 05:06:38 32° ESE 05:11:43 10° NE daylight
14 Feb - 06:48:33 10° WSW 06:52:56 22° WNW 06:57:21 10° NNW daylight
14 Feb - 16:03:14 10° N 16:09:09 43° ENE 16:15:11 10° SE night (unlit)
14 Feb - 17:51:03 10° WNW 17:55:16 19° WSW 17:59:32 10° SSW night (unlit)
15 Feb - 05:11:50 10° S 05:17:32 57° ESE 05:23:14 10° NNE daylight
15 Feb - 07:01:53 10° W 07:04:08 12° WNW 07:06:24 10° NW daylight
15 Feb - 16:13:55 10° NNW 16:20:11 74° ENE 16:26:35 10° SSE night (unlit)
16 Feb - 05:22:40 10° SSW 05:28:29 81° WNW 05:34:20 10° NNE daylight
16 Feb - 14:41:59 10° NE 14:44:31 12° ENE 14:47:02 10° E night (unlit)
16 Feb - 16:24:56 10° NNW 16:31:11 67° WSW 16:37:31 10° S night (unlit)
